Location: Newark
(11.2914°S, 14.4718°E)
Time: 01:10:46
(UTC+00:00)

Tiros 1 despin weight - Pass Details

Date: 26 September 2019
Orbit: 593 x 643 km, 48.2° (Epoch: 21 October)

Event Time Altitude Azimuth Distance (km) Brightness Sun altitude
Rises 17:33:46 0° 344° (NNW) 2,806 ? -9.6°
Reaches altitude 10° 17:36:22 10° 358° (N) 1,911 ? -10.2°
Maximum altitude 17:39:56 24° 52° (NE) 1,231 ? -11.1°
Enters shadow 17:42:13 16° 94° (E) 1,556 ? -11.7°
Drops below altitude 10° 17:43:32 10° 107° (ESE) 1,934 - -12.0°
Sets 17:46:10 0° 120° (ESE) 2,848 - -12.6°
